Date String (YYYY-MM-DD hh:mm:ss) UTC,Instrument flags,Ambient pressure (hPa),Sample flow (lpm),Bypass flow (lpm),Sample temperature (°C),Ambient temperature (°C),ASC tube jacket temperature (°C),LED temperature (°C),Box temperature (°C),Sample RH (%),Span deviation,Mass concentration (μg/m³),Mass concentration (μg/m³),Mass concentration (μg/m³)
DateTimeUTC,F1_M11,P_M11,Q1_M11,Q2_M11,T1_M11,T2_M11,T3_M11,T4_M11,T5_M11,U1_M11,ZSPAN_M11,X2_M11,X0_M11,X1_M11
2022-09-06 10:00:00,,0829.2,5.00,0.00,30.0,28.3,00.0,38.8,31.8,16.4,0000.0,0008.54,0015.73,0007.30
2022-09-06 10:01:00,,0829.2,5.00,0.00,30.0,28.5,00.0,38.8,31.8,16.5,0000.0,0008.50,0015.78,0007.28
2022-09-06 10:02:00,,0829.4,5.00,0.00,30.0,28.6,00.0,38.8,31.8,16.6,0000.0,0008.46,0015.59,0007.27
2022-09-06 10:03:00,,0829.2,5.00,0.00,30.0,28.8,00.0,38.8,31.9,16.7,0000.0,0008.49,0015.52,0007.27
2022-09-06 10:04:00,,0829.2,4.98,0.00,30.0,28.8,00.0,38.8,31.9,16.9,0000.0,0008.48,0015.61,0007.26
2022-09-06 10:05:00,,0829.2,5.01,0.00,30.1,28.9,00.0,38.8,31.9,16.8,0000.0,0008.43,0015.41,0007.25
2022-09-06 10:06:00,,0829.3,4.99,0.00,30.1,29.0,00.0,38.8,32.0,16.8,0000.0,0008.42,0015.72,0007.26
2022-09-06 10:07:00,,0829.3,5.01,0.00,30.1,29.0,00.0,38.8,32.0,16.9,0000.0,0008.41,0015.95,0007.25
2022-09-06 10:08:00,,0829.3,4.99,0.00,30.1,29.1,00.0,38.9,32.0,16.8,0000.0,0008.40,0015.94,0007.23
2022-09-06 10:09:00,,0829.3,5.01,0.00,30.2,29.1,00.0,38.9,32.0,16.8,0000.0,0008.36,0015.13,0007.22
2022-09-06 10:10:00,,0829.3,4.98,0.00,30.2,29.2,00.0,38.9,32.1,16.9,0000.0,0008.33,0015.18,0007.22
2022-09-06 10:11:00,,0829.4,5.01,0.00,30.2,29.2,00.0,38.9,32.1,16.9,0000.0,0008.29,0015.37,0007.22
2022-09-06 10:12:00,,0829.4,4.99,0.00,30.2,28.7,00.0,38.9,32.1,16.8,0000.0,0008.36,0015.28,0007.24
2022-09-06 10:13:00,,0829.2,5.02,0.00,30.2,27.1,00.0,38.9,31.9,16.9,0000.0,0008.42,0015.48,0007.25
2022-09-06 10:14:00,,0829.3,4.98,0.00,30.1,26.4,00.0,38.9,31.8,17.0,0000.0,0008.40,0015.96,0007.23
2022-09-06 10:15:00,,0829.3,5.00,0.00,30.0,26.5,00.0,38.8,31.7,16.9,0000.0,0008.36,0016.55,0007.22
2022-09-06 10:16:00,,0829.3,5.00,0.00,29.9,26.8,00.0,38.7,31.5,16.9,0000.0,0008.30,0016.45,0007.21
2022-09-06 10:17:00,,0829.3,5.00,0.00,29.9,27.2,00.0,38.7,31.5,17.0,0000.0,0008.27,0017.08,0007.19
2022-09-06 10:18:00,,0829.3,5.01,0.00,29.9,27.6,00.0,38.7,31.5,17.0,0000.0,0008.28,0016.47,0007.17
2022-09-06 10:19:00,,0829.4,5.00,0.00,29.9,27.9,00.0,38.7,31.6,17.0,0000.0,0008.31,0016.20,0007.20
2022-09-06 10:20:00,,0829.3,5.00,0.00,29.8,28.1,00.0,38.7,31.6,17.0,0000.0,0008.33,0016.70,0007.20
2022-09-06 10:21:00,,0829.3,5.01,0.00,29.9,28.3,00.0,38.7,31.7,17.1,0000.0,0008.34,0017.79,0007.21
2022-09-06 10:22:00,,0829.3,5.00,0.00,29.9,28.4,00.0,38.7,31.7,17.1,0000.0,0008.37,0017.24,0007.22
2022-09-06 10:23:00,,0829.3,4.98,0.00,29.9,28.5,00.0,38.7,31.7,17.0,0000.0,0008.35,0017.38,0007.21
2022-09-06 10:24:00,,0829.3,5.01,0.00,29.9,28.6,00.0,38.7,31.7,16.7,0000.0,0008.31,0018.25,0007.18
2022-09-06 10:25:00,,0829.3,4.99,0.00,29.9,28.7,00.0,38.7,31.7,16.7,0000.0,0008.26,0018.46,0007.16
2022-09-06 10:26:00,,0829.3,5.01,0.00,29.9,28.8,00.0,38.7,31.8,16.7,0000.0,0008.23,0017.70,0007.15
2022-09-06 10:27:00,,0829.3,4.99,0.00,30.0,28.9,00.0,38.7,31.9,16.7,0000.0,0008.22,0017.63,0007.14
2022-09-06 10:28:00,,0829.3,5.02,0.00,30.0,28.9,00.0,38.7,31.9,16.6,0000.0,0008.24,0017.34,0007.13
2022-09-06 10:29:00,,0829.3,4.99,0.00,30.0,29.0,00.0,38.7,31.9,16.6,0000.0,0008.23,0017.27,0007.12
2022-09-06 10:30:00,,0829.2,5.00,0.00,30.1,29.0,00.0,38.8,31.9,16.6,0000.0,0008.23,0017.27,0007.10
2022-09-06 10:31:00,,0829.2,4.98,0.00,30.1,29.1,00.0,38.8,32.0,16.5,0000.0,0008.19,0016.85,0007.07
2022-09-06 10:32:00,,0829.2,5.01,0.00,30.1,29.1,00.0,38.8,32.0,16.4,0000.0,0008.16,0015.97,0007.05
2022-09-06 10:33:00,,0829.3,4.99,0.00,30.1,29.1,00.0,38.8,32.0,16.4,0000.0,0008.13,0015.79,0007.04
2022-09-06 10:34:00,,0829.3,5.01,0.00,30.2,29.2,00.0,38.9,32.1,16.3,0000.0,0008.07,0015.41,0007.03
2022-09-06 10:35:00,,0829.2,4.99,0.00,30.2,29.2,00.0,38.9,32.1,16.3,0000.0,0008.11,0014.45,0007.03
2022-09-06 10:36:00,,0829.3,5.01,0.00,30.2,29.3,00.0,38.9,32.1,16.2,0000.0,0008.15,0013.94,0007.05
2022-09-06 10:37:00,,0829.3,5.01,0.00,30.3,29.3,00.0,39.0,32.1,16.2,0000.0,0008.16,0013.93,0007.03
2022-09-06 10:38:00,,0829.3,4.98,0.00,30.3,28.9,00.0,39.0,32.1,16.1,0000.0,0008.16,0013.92,0007.04
2022-09-06 10:39:00,,0829.3,5.01,0.00,30.2,27.4,00.0,38.9,32.0,16.1,0000.0,0008.15,0013.73,0007.06
2022-09-06 10:40:00,,0829.3,4.99,0.00,30.2,27.1,00.0,38.9,32.0,16.1,0000.0,0008.19,0013.64,0007.08
2022-09-06 10:41:00,,0829.3,4.99,0.00,30.1,27.2,00.0,38.9,31.8,16.1,0000.0,0008.17,0013.69,0007.09
2022-09-06 10:42:00,,0829.3,5.00,0.00,30.1,27.5,00.0,38.8,31.8,16.2,0000.0,0008.14,0013.95,0007.10
2022-09-06 10:43:00,,0829.3,5.01,0.00,30.0,27.8,00.0,38.8,31.7,16.1,0000.0,0008.13,0013.96,0007.10
2022-09-06 10:44:00,,0829.3,4.99,0.00,30.0,28.1,00.0,38.8,31.7,16.1,0000.0,0008.09,0014.00,0007.08
2022-09-06 10:45:00,,0829.4,5.00,0.00,30.0,28.3,00.0,38.8,31.8,16.1,0000.0,0008.10,0014.15,0007.08
2022-09-06 10:46:00,,0829.4,5.00,0.00,30.0,28.5,00.0,38.8,31.8,16.1,0000.0,0008.07,0014.27,0007.07
2022-09-06 10:47:00,,0829.5,5.00,0.00,30.0,28.6,00.0,38.8,31.8,16.1,0000.0,0008.07,0014.61,0007.06
2022-09-06 10:48:00,,0829.4,5.01,0.00,30.0,28.7,00.0,38.8,31.9,16.1,0000.0,0008.09,0014.62,0007.06
2022-09-06 10:49:00,,0829.5,4.98,0.00,30.1,28.8,00.0,38.8,31.9,16.0,0000.0,0008.11,0014.52,0007.06
2022-09-06 10:50:00,,0829.5,5.00,0.00,30.1,28.9,00.0,38.8,31.9,16.0,0000.0,0008.08,0014.25,0007.04
2022-09-06 10:51:00,,0829.5,5.00,0.00,30.1,28.9,00.0,38.8,32.0,16.0,0000.0,0007.98,0014.14,0007.02
2022-09-06 10:52:00,,0829.5,4.99,0.00,30.1,29.0,00.0,38.9,32.0,16.0,0000.0,0007.91,0014.46,0006.99
2022-09-06 10:53:00,,0829.5,5.00,0.00,30.2,29.1,00.0,38.9,32.0,15.9,0000.0,0007.97,0014.81,0006.98
2022-09-06 10:54:00,,0829.5,4.99,0.00,30.2,29.1,00.0,38.9,32.0,15.9,0000.0,0008.00,0014.80,0006.96
2022-09-06 10:55:00,,0829.5,5.00,0.00,30.2,29.2,00.0,38.9,32.1,15.8,0000.0,0008.01,0014.93,0006.96
2022-09-06 10:56:00,,0829.5,5.01,0.00,30.2,29.2,00.0,38.9,32.1,15.8,0000.0,0008.01,0014.83,0006.96
2022-09-06 10:57:00,,0829.5,5.00,0.00,30.3,29.2,00.0,39.0,32.1,15.8,0000.0,0008.01,0014.83,0006.97
2022-09-06 10:58:00,,0829.5,5.00,0.00,30.3,29.3,00.0,39.0,32.1,15.8,0000.0,0007.99,0015.00,0006.97
2022-09-06 10:59:00,,0829.5,5.00,0.00,30.3,29.3,00.0,39.0,32.2,15.8,0000.0,0007.98,0014.70,0006.97
